Regional Weather Roundup
Issued by NWS Cleveland, OH

Home | Current Version | Previous Version | Graphics & Text | Print | Product List | Glossary On
Versions: 1 2 3 4 5 6 7 8 9 10 11 12 13 14 15 16 17 18 19 20 21 22 23 24 25 26 27 28 29 30 31 32 33 34 35 36 37 38 39 40 41 42 43 44 45 46 47 48 49 50
000
ASUS41 KCLE 030700
RWRCLE
OHIO REGIONAL WEATHER ROUNDUP
NATIONAL WEATHER SERVICE WILMINGTON, OH
300 AM EDT MON AUG 03 2015

NOTE: "FAIR" INDICATES FEW OR NO CLOUDS BELOW 12,000 FEET WITH NO
SIGNIFICANT WEATHER AND/OR OBSTRUCTIONS TO VISIBILITY.

OHZ001>008-015>018-024>027-034-035-043-044-030800-
   NORTHWEST OHIO

CITY           SKY/WX    TMP DP  RH WIND       PRES   REMARKS
DEFIANCE       LGT RAIN  64  62  93 S12       29.85R
FINDLAY        TSTM      64  61  90 SE3       29.89S
TOLEDO EXPRESS RAIN      62  62 100 S10       29.81F FOG
TOLEDO EXEC    LGT RAIN  63  60  90 S14       29.84F FOG
LIMA           TSTM      62  61  96 N6        29.93R FOG
$$

OHZ009>014-019>023-028>033-038-089-030800-
   NORTHEAST OHIO

CITY           SKY/WX    TMP DP  RH WIND       PRES   REMARKS
CLE-HOPKINS    LGT RAIN  63  61  93 CALM      29.90F
CLE-LAKEFRONT  CLOUDY    65  61  87 W5        29.87F FOG
CUY CO. ARPT   NOT AVBL
LORAIN-ELYRIA  RAIN      63  61  93 SW3       29.89F FOG
ASHTABULA      CLOUDY    67  60  78 W8        29.86R
AKRON-CANTON   MOCLDY    69  58  67 N22G37    29.88R
WOOSTER        NOT AVBL
MANSFIELD      LGT RAIN  62  59  90 N14G24    29.91R
YOUNGSTOWN     CLOUDY    72  62  71 NW20G32   29.86R
$$

OHZ042-051>053-060>062-070>072-077>081-030800-
  SOUTHWEST OHIO

CITY           SKY/WX    TMP DP  RH WIND       PRES   REMARKS
CINC-COVINGTON PTCLDY    67  61  81 SW6       29.88S
CINC-LUNKEN    CLEAR     65  63  93 CALM      29.87F
HAMILTON       PTCLDY    65  62  90 CALM      29.87F
DAYTON         NOT AVBL
WRIGHT-PAT AFB NOT AVBL
DAYTON GENERAL CLEAR     68  60  75 S8        29.86F
WILMINGTON     CLEAR     66  59  78 S7        29.87F
$$

OHZ036-037-039>041-045>050-054>059-063>069-073>076-082>088-030800-
  CENTRAL AND SOUTHEAST OHIO

CITY           SKY/WX    TMP DP  RH WIND       PRES   REMARKS
COLUMBUS       MOCLDY    70  61  73 SW6       29.85S
OSU AIRPORT    PTCLDY    70  60  70 S9        29.84S
BOLTON FIELD   NOT AVBL
RICKENBACK AFB NOT AVBL
NEWARK         CLEAR     69  60  73 SW3       29.84F
MARION         LGT RAIN  70  61  73 N10       29.89R
LANCASTER      CLEAR     70  59  68 SW3       29.86S
ZANESVILLE     CLEAR     67  59  75 S5        29.85S
NEW PHILLY     CLEAR     71  60  68 SW5       29.83S
$$


USA.gov is the U.S. government's official web portal to all federal, state and local government web resources and services.